Location: Drocourt
(49.0571°N, 1.7669°E)
Time: 11:50:20
(UTC+00:00)

Transit 4A - Pass Details

Date: 19 April 2024
Orbit: 871 x 971 km, 66.8° (Epoch: 24 May)

Event Time Altitude Azimuth Distance (km) Brightness Sun altitude
Rises 16:46:20 0° 297° (WNW) 3,495 11.9 19.4°
Reaches altitude 10° 16:50:16 10° 323° (NW) 2,542 10.7 18.8°
Maximum altitude 16:53:12 14° 353° (N) 2,267 10.1 18.3°
Drops below altitude 10° 16:56:08 10° 24° (NNE) 2,531 10.0 17.8°
Sets 17:00:02 0° 49° (NE) 3,469 10.4 17.2°
